This is the latest recevied weather packets stored in our database for station/object WP3OF-3. If no packets are shown the sender has not sent any weather packets the latest 10 day(s).
| Time | Temp. | Humidity | Pressure | Rain* | Wind** | Luminosity | Snow |
|---|---|---|---|---|---|---|---|
| 1777671650 | 26.11° C | 84% | 1016.1 hPa | 0 mm | - | - | - |
| 1777671347 | 26.11° C | 84% | 1016 hPa | 0 mm | - | - | - |
| 1777671043 | 26.11° C | 83% | 1016.2 hPa | 0 mm | - | - | - |
| 1777670740 | 26.11° C | 83% | 1016.1 hPa | 0 mm | - | - | - |
| 1777670437 | 26.11° C | 83% | 1015.8 hPa | 0 mm | - | - | - |
| 1777670133 | 26.11° C | 82% | 1015.8 hPa | 0 mm | - | - | - |
| 1777669832 | 26.11° C | 83% | 1016.1 hPa | 0 mm | - | - | - |
| 1777669527 | 26.11° C | 83% | 1015.9 hPa | 0 mm | - | - | - |
| 1777669227 | 26.11° C | 82% | 1015.9 hPa | 0 mm | - | - | - |
| 1777668921 | 26.67° C | 81% | 1016 hPa | 0 mm | - | - | - |
| 1777668619 | 26.67° C | 81% | 1016.2 hPa | 0 mm | - | - | - |
| 1777667708 | 26.11° C | 82% | 1016.2 hPa | 0 mm | - | - | - |
| 1777667406 | 26.11° C | 81% | 1016.1 hPa | 0 mm | - | - | - |
| 1777667102 | 26.67° C | 81% | 1016 hPa | 0 mm | - | - | - |
| 1777666798 | 26.67° C | 80% | 1016.1 hPa | 0 mm | - | - | - |
| 1777665587 | 26.67° C | 79% | 1016.1 hPa | 0 mm | - | - | - |
| 1777660730 | 27.22° C | 78% | 1016.5 hPa | 0 mm | - | - | - |
| 1777660124 | 28.33° C | 77% | 1016.1 hPa | 0 mm | - | - | - |
| 1777659518 | 28.89° C | 72% | 1016.3 hPa | 0 mm | - | - | - |
| 1777659215 | 28.89° C | 73% | 1016.6 hPa | 0 mm | - | - | - |
| 1777658912 | 28.89° C | 73% | 1016.6 hPa | 0 mm | - | - | - |
| 1777658002 | 29.44° C | 73% | 1017 hPa | 0 mm | - | - | - |
| 1777657094 | 29.44° C | 72% | 1016.9 hPa | 0 mm | - | - | - |
| 1777656791 | 28.89° C | 72% | 1017.1 hPa | 0 mm | - | - | - |
| 1777656187 | 28.89° C | 74% | 1017.2 hPa | 0 mm | - | - | - |
* Rain latest hour (hover to see other rain measurements)
** Current wind speed in m/s (hover to see current wind gust speed)